Theta_e
344 343 342 341 341 340 342 341 338 340 340 340 337 339 341 339 340 344 345 345 343 346 344 344 346 348 349 345 345 344 348 348 348 353 351 350 355 351 362 355 361 360 365 366 361 369 364 362 361 368 358 360 361 356 355 355 356 356 355 358 350 348 339 335 338 336 337 334 338 337 340 340 341 342 340 339 338 341 348 340 345 352 346 344 353
347 343 343 341 341 342 343 341 345 337 342 340 340 341 342 344 340 339 345 348 345 343 344 344 352 348 347 346 345 345 346 348 346 352 347 350 359 361 364 363 363 360 374 372 367 365 370 357 360 361 362 365 365 360 360 365 359 355 352 350 352 343 334 335 339 338 335 333 331 333 334 338 341 339 339 337 340 339 338 345 350 338 338 340 344
344 341 343 342 342 341 342 342 343 341 342 341 342 342 341 343 347 346 343 345 346 345 347 348 351 354 350 350 350 346 346 348 347 348 350 350 352 355 365 364 361 363 362 366 359 358 365 364 357 369 367 365 370 362 360 359 356 350 352 351 343 338 336 338 344 340 335 338 336 334 330 330 338 337 340 337 338 336 337 337 339 337 339 341 342
344 344 344 342 343 342 343 344 344 343 343 343 343 343 342 350 352 352 349 346 353 351 355 347 354 364 366 364 363 360 357 369 358 358 352 347 347 346 363 359 361 355 361 357 357 361 366 370 357 356 377 367 358 362 364 350 352 349 350 351 345 337 334 336 340 343 340 340 334 333 333 331 327 330 333 337 337 335 335 335 338 338 339 340 342
345 347 347 342 341 343 344 345 345 344 344 344 344 344 345 344 350 355 353 348 349 357 356 359 369 366 369 367 366 365 361 357 351 348 352 360 348 349 348 358 356 358 353 367 359 368 367 375 363 361 360 364 360 355 362 348 348 351 351 348 342 340 335 336 340 341 337 345 349 342 335 330 327 330 332 334 336 334 336 336 339 336 339 339 340
347 347 350 347 343 345 346 347 346 346 347 348 349 346 346 345 347 353 353 349 345 351 356 363 364 366 363 366 361 360 354 353 345 343 342 340 344 348 351 352 353 360 358 358 358 361 367 369 371 363 360 364 355 356 352 352 352 349 345 342 339 343 341 339 337 342 341 340 340 341 340 333 333 332 330 328 336 337 336 337 339 337 339 340 341
346 348 349 347 342 346 345 347 347 347 348 348 348 347 347 346 349 349 353 352 347 352 356 367 361 361 356 353 348 349 348 345 347 346 341 342 346 356 352 355 358 358 360 361 361 373 370 370 372 365 373 364 363 362 359 349 352 351 346 340 341 346 346 343 340 336 344 341 340 340 339 344 338 333 328 330 327 335 336 335 337 338 338 340 340
345 347 348 346 345 343 343 347 347 348 350 348 346 346 347 349 349 351 355 354 349 350 355 364 362 360 359 353 347 345 341 347 346 351 349 361 355 356 352 349 354 359 357 369 362 364 366 364 369 368 361 361 356 357 353 355 355 353 348 345 351 353 347 343 343 340 337 340 341 340 338 338 339 336 335 331 330 329 331 336 337 338 337 339 340
346 345 346 346 347 347 344 345 348 349 348 346 346 346 348 348 351 351 353 355 354 352 354 358 364 362 358 351 356 349 346 344 355 366 358 355 352 351 356 352 359 357 364 362 365 360 370 366 362 366 367 363 363 354 358 353 354 350 350 344 346 349 347 346 351 349 341 338 350 342 338 336 337 336 337 338 334 330 330 331 333 338 337 339 341
346 348 347 346 350 349 346 346 347 349 349 348 347 346 347 349 350 350 351 352 352 353 355 359 364 364 359 360 358 362 358 355 350 359 375 366 357 358 359 356 349 353 361 367 371 362 363 365 358 358 356 357 354 358 363 362 358 351 347 344 347 351 350 346 345 345 345 344 339 344 342 337 336 335 337 338 339 337 331 331 333 334 332 336 341
345 345 347 348 351 351 349 348 347 347 350 349 347 346 347 348 349 349 353 349 353 354 356 357 360 357 358 362 362 358 356 354 349 353 363 366 364 348 349 352 355 352 354 356 357 355 357 362 353 352 357 362 360 356 356 351 348 344 342 349 349 352 348 348 344 343 344 346 338 341 338 335 335 332 337 337 336 335 335 333 336 337 332 333 339
346 345 347 349 350 350 351 347 347 348 349 348 346 347 346 348 349 351 353 353 354 352 355 353 354 358 356 359 362 360 362 349 357 349 350 354 350 351 357 349 349 349 352 353 354 353 357 359 368 363 361 360 356 358 356 353 349 345 341 346 344 351 353 354 351 340 340 341 340 337 338 337 337 337 339 340 340 340 339 336 336 337 334 333 340
345 346 345 347 348 349 348 347 348 346 348 347 347 348 346 347 348 348 352 353 356 353 356 357 356 355 355 355 361 365 358 364 354 356 351 350 348 348 358 369 367 357 350 347 350 353 362 364 361 364 364 363 369 363 358 357 355 343 349 344 347 355 352 352 347 341 340 340 340 340 338 338 337 340 340 341 344 345 341 337 338 340 333 333 337
345 345 346 346 347 348 349 350 349 349 349 347 348 349 346 346 350 347 351 353 358 356 354 357 356 356 356 354 354 358 360 353 364 346 347 350 350 349 346 346 349 346 348 356 348 350 355 356 359 365 369 368 368 365 357 356 355 345 347 350 343 354 354 356 350 345 342 341 344 342 338 338 338 341 342 343 343 342 340 338 339 338 337 334 337
345 346 345 345 347 347 346 349 349 350 349 347 347 347 350 345 348 352 351 352 355 356 356 356 353 353 354 352 353 352 352 352 352 351 350 348 345 345 348 346 343 347 349 361 365 358 356 359 362 364 363 365 367 364 353 350 355 354 355 354 354 349 354 350 343 342 340 340 343 345 341 338 340 341 343 342 346 345 343 342 341 333 334 336 335
343 346 346 347 348 349 348 348 348 349 352 350 349 351 351 348 348 348 352 350 351 357 355 352 353 351 356 355 354 354 357 351 354 359 360 350 346 344 349 366 350 350 361 358 355 368 361 360 363 363 365 363 361 363 356 352 354 358 363 357 349 344 346 348 347 341 340 340 343 346 348 340 346 344 344 345 350 347 349 347 343 339 333 331 334
339 340 345 347 348 347 346 346 346 349 352 356 357 352 350 351 348 349 351 349 349 354 350 350 352 351 351 351 350 351 350 348 347 347 348 350 354 352 346 347 353 364 351 357 355 368 359 359 362 360 364 364 362 359 352 354 358 356 349 356 349 348 354 348 349 348 342 341 341 345 349 345 347 352 344 347 348 352 349 352 344 340 341 336 332
346 343 344 346 346 347 349 348 347 348 351 353 361 360 355 351 350 350 348 349 349 350 349 349 348 348 349 349 350 350 349 347 348 347 344 347 349 353 352 347 347 348 351 350 352 356 364 364 363 363 360 359 358 354 352 352 354 357 352 352 353 356 356 354 353 347 344 344 344 346 348 341 340 346 351 348 348 354 351 353 343 343 344 339 337
346 344 343 343 344 345 347 348 349 350 351 352 353 358 357 352 356 351 347 349 349 350 349 349 349 348 348 348 348 350 350 350 355 354 347 343 345 346 348 351 348 356 356 373 359 354 358 357 365 361 361 360 356 353 353 353 356 355 349 348 354 359 356 352 349 348 346 346 345 346 347 343 344 347 354 352 349 348 348 345 345 346 345 344 341
345 344 344 343 342 344 345 347 348 347 347 351 352 352 352 359 350 348 351 355 357 354 352 350 349 348 347 349 349 353 354 360 356 357 345 342 343 346 348 346 348 350 354 358 357 356 358 359 357 358 356 355 353 352 351 352 358 368 351 347 349 357 351 352 349 349 347 344 346 344 347 348 346 348 354 348 345 344 345 344 348 348 345 345 346
347 345 345 344 342 341 342 346 349 348 348 351 351 351 351 357 354 352 351 350 351 354 355 354 355 351 349 346 347 348 348 357 355 350 346 344 343 345 346 347 354 352 355 356 353 366 360 359 358 359 356 357 360 356 352 355 360 354 353 355 358 357 353 349 353 348 346 353 354 351 352 350 347 347 341 339 339 338 343 346 345 345 343 344 346
348 347 348 345 352 343 342 345 347 348 348 348 349 350 351 352 352 351 354 357 354 353 355 357 358 354 347 347 348 348 352 357 355 345 344 343 343 344 346 348 347 354 354 354 356 352 357 363 357 357 357 355 361 361 351 353 353 351 351 352 354 354 352 352 353 351 352 352 351 352 350 350 351 347 345 337 337 337 337 342 341 343 342 345 348
346 346 349 351 353 356 353 351 347 348 348 348 348 349 350 352 353 356 357 357 356 357 362 363 356 355 356 349 355 364 357 355 347 346 344 343 343 344 349 347 348 351 357 359 355 355 360 363 363 360 358 356 358 354 355 354 353 355 353 351 353 351 350 349 347 352 349 352 349 347 344 347 348 346 341 339 339 338 337 337 337 340 342 344 347
345 344 348 349 348 351 352 351 350 346 349 349 348 350 348 348 352 352 352 356 360 362 361 363 359 349 347 352 365 369 357 350 346 346 348 346 344 344 350 355 350 350 348 357 356 353 363 371 361 361 359 360 357 355 353 354 354 356 355 353 351 350 348 348 348 344 342 347 349 348 343 345 345 344 342 339 338 338 339 341 338 344 347 345 346
347 341 350 349 349 348 349 350 355 355 348 350 350 351 350 351 350 355 356 358 367 368 366 363 358 354 349 349 360 362 355 350 346 347 347 346 346 346 364 363 361 349 351 354 358 367 364 364 357 359 358 358 359 358 356 355 355 356 354 350 353 356 349 350 349 349 346 351 349 349 349 349 348 343 341 338 340 339 339 342 341 343 344 346 347
343 345 349 352 352 351 352 354 355 355 361 368 369 359 356 352 355 361 366 371 371 363 364 365 365 357 354 348 352 361 354 353 352 356 348 347 352 355 370 363 373 370 373 358 359 363 361 358 360 359 357 361 361 358 357 356 355 353 352 352 354 353 350 351 351 349 351 348 345 344 348 347 348 343 340 342 346 344 342 342 343 346 346 348 347
342 348 350 354 354 348 354 354 358 356 360 360 359 359 360 364 367 367 370 370 370 370 368 364 364 359 356 355 354 360 364 368 364 359 351 356 366 361 370 364 367 371 369 370 359 361 363 359 364 361 358 359 359 358 358 356 354 355 356 353 353 351 351 350 351 348 347 349 346 342 347 348 346 344 342 341 344 343 346 344 346 345 346 347 346
348 350 348 349 350 353 354 356 357 359 360 357 357 359 362 364 362 365 366 364 364 365 360 362 361 363 362 357 358 362 361 370 369 369 370 367 374 367 370 378 373 371 368 375 371 361 363 366 365 364 362 362 360 359 358 357 356 357 355 353 352 350 350 351 350 352 350 348 344 346 347 346 344 344 343 343 342 342 346 346 347 349 347 346 347
344 349 352 350 351 355 353 354 358 359 360 360 358 361 362 362 361 363 365 365 366 364 362 361 361 361 363 362 358 360 362 366 371 368 364 369 375 375 374 377 377 370 361 365 369 363 366 366 366 364 362 361 358 357 356 354 355 355 355 352 351 349 350 350 348 346 346 350 345 344 344 343 347 347 345 344 343 343 344 344 345 348 347 348 347
344 348 349 349 351 350 354 354 357 359 360 361 361 361 360 359 359 360 363 364 367 368 366 366 363 361 358 361 363 366 366 368 368 368 367 366 375 374 373 375 374 374 376 375 374 374 373 367 364 362 361 359 358 356 356 357 355 354 353 350 351 352 352 350 349 349 346 348 345 344 344 348 348 347 346 345 344 345 345 344 345 346 345 346 347
342 348 344 345 348 352 350 354 355 360 363 363 358 360 360 358 359 357 360 362 363 364 361 358 354 356 355 354 356 363 368 367 370 371 369 368 371 372 374 374 374 373 373 375 370 372 368 366 364 362 360 358 356 355 359 352 353 356 354 353 352 352 352 350 350 349 345 347 343 344 347 345 347 347 346 346 344 346 347 347 348 348 348 346 344
341 345 347 349 352 349 352 353 355 358 362 360 359 358 357 358 357 358 362 363 362 360 357 353 352 352 353 353 354 354 357 367 371 371 370 369 369 371 371 373 373 372 372 371 370 371 368 366 364 362 360 357 356 356 344 348 352 353 354 352 350 349 350 350 350 348 345 345 343 342 344 347 348 348 346 346 344 346 348 348 347 347 346 348 348
339 344 348 348 348 351 353 355 357 359 357 359 359 358 353 357 354 356 360 359 359 358 355 354 354 355 356 357 356 354 354 357 366 371 371 369 370 370 371 370 371 370 368 367 371 368 367 366 365 361 358 358 355 343 341 344 346 347 354 352 349 350 351 348 349 347 350 349 345 342 342 346 344 346 347 344 344 345 346 347 351 349 348 348 347
338 342 348 350 353 354 355 356 357 357 356 357 358 356 358 357 357 358 358 357 356 357 356 353 352 356 356 358 356 353 352 351 353 363 371 370 369 370 371 371 372 370 368 368 367 367 367 366 365 361 359 357 352 344 339 341 342 343 347 353 350 350 349 349 349 349 348 348 346 346 343 344 343 345 348 346 345 345 346 350 350 349 348 348 350
339 344 347 347 350 351 356 357 357 357 356 356 356 357 356 358 358 354 354 355 355 354 353 353 353 355 355 356 356 354 352 351 351 348 345 359 371 371 371 371 371 369 369 368 366 365 367 366 365 362 359 356 349 337 335 337 337 339 343 351 351 348 348 350 349 349 347 345 348 345 345 343 343 346 351 346 342 344 346 347 348 345 346 345 344
346 347 350 348 349 351 354 355 357 355 355 355 355 355 354 353 354 353 353 355 353 353 352 350 350 355 353 355 355 354 352 351 351 351 349 346 357 369 369 370 369 369 371 371 371 369 367 366 364 363 359 356 345 331 334 334 334 336 343 350 351 350 350 348 346 346 346 349 350 348 350 347 346 346 346 345 344 351 350 344 344 345 343 342 340
346 345 347 351 350 349 351 354 355 354 354 354 355 353 353 351 350 351 352 351 350 350 351 349 347 350 355 356 355 354 353 352 351 350 346 345 342 346 368 371 367 368 370 370 370 370 369 366 364 363 360 353 341 332 329 329 330 333 342 351 352 349 348 344 341 343 348 348 349 350 352 348 346 341 340 332 340 343 345 344 342 342 342 342 340
345 346 345 346 348 350 351 350 351 352 353 356 355 353 352 349 348 349 350 349 350 347 348 351 348 350 353 354 355 356 355 354 353 351 349 349 352 351 348 357 366 367 369 369 370 370 369 367 364 361 361 349 343 335 327 326 327 330 342 350 351 348 343 343 342 346 348 348 349 348 348 349 343 339 335 332 337 342 343 344 343 339 339 339 338
343 345 341 343 346 349 350 351 353 350 352 355 354 352 351 349 348 349 349 349 348 349 351 350 349 351 353 357 357 357 356 355 354 353 353 351 349 346 351 352 364 369 369 369 368 368 367 367 365 363 363 351 344 335 324 324 325 327 339 352 349 345 341 342 344 344 347 346 349 350 347 346 342 338 327 330 335 338 339 344 344 340 338 337 340
344 345 344 343 347 348 349 349 350 352 355 355 354 352 351 350 349 349 347 347 347 347 348 350 350 352 355 356 356 355 354 354 354 355 355 353 352 352 350 349 354 364 367 368 366 365 365 364 365 364 361 353 344 337 331 322 323 324 332 352 348 343 340 343 343 343 343 345 346 346 348 341 329 325 324 324 326 330 335 343 345 340 340 342 341
344 345 349 343 344 345 344 345 350 354 355 355 353 352 351 350 350 348 346 347 349 350 349 347 348 349 351 352 355 352 350 352 356 356 358 359 355 351 351 354 356 363 365 365 364 362 363 363 363 363 361 353 345 338 334 320 320 322 326 345 345 344 344 345 343 342 342 342 343 343 339 334 323 323 321 321 322 325 333 346 344 342 339 345 349
347 349 348 346 345 346 348 347 349 351 352 354 354 350 351 351 349 348 349 349 351 350 350 350 349 347 347 350 350 352 351 351 350 353 352 351 351 349 349 349 345 348 352 363 362 363 362 362 362 362 362 357 348 340 336 323 321 320 322 328 345 347 347 347 344 342 342 343 342 343 334 331 322 322 321 318 320 321 335 344 337 320 324 337 345
345 345 346 346 345 345 346 347 348 353 355 354 353 351 350 351 349 351 353 352 350 349 349 349 351 351 350 347 347 349 348 353 353 353 351 350 352 350 348 348 347 346 346 348 353 360 360 359 359 362 361 359 349 343 333 331 323 319 319 322 331 341 337 348 346 342 343 344 343 344 336 331 320 317 316 317 319 320 338 328 314 322 326 332 348
345 346 346 346 345 345 349 350 350 352 353 350 351 349 350 350 349 352 354 352 351 351 350 349 349 350 351 350 349 348 348 349 353 353 351 350 350 350 350 350 351 350 347 344 346 348 355 357 356 358 359 359 352 347 335 331 329 320 318 319 321 322 327 344 350 345 348 345 344 342 333 319 314 309 313 315 320 333 332 311 317 323 333 343 347
343 345 349 348 346 345 345 347 349 351 352 353 351 349 348 349 352 354 351 352 352 350 349 346 349 349 351 352 352 351 350 346 346 352 353 352 352 351 350 350 351 348 347 345 347 347 349 354 356 355 356 357 353 349 340 333 328 325 320 319 321 324 324 329 348 348 353 347 338 323 316 313 313 311 312 314 325 326 311 313 313 326 341 346 346
341 344 347 349 350 349 348 348 350 351 352 354 352 350 345 348 354 354 352 351 351 350 349 349 348 348 348 349 350 352 352 348 350 349 347 349 351 351 351 351 353 349 347 345 344 345 348 352 355 355 355 355 354 349 343 338 332 331 328 322 322 326 337 344 349 350 343 326 320 317 316 317 318 322 329 333 335 335 326 333 333 338 339 344 345
341 343 346 346 345 347 346 347 347 349 352 352 351 350 350 350 351 353 351 351 352 349 346 347 348 348 348 349 348 349 350 351 349 349 350 352 353 353 351 351 351 353 353 350 347 348 349 352 353 354 355 356 355 354 346 340 336 335 333 333 329 332 338 342 339 333 329 327 324 325 325 324 325 329 334 335 336 334 335 335 335 336 339 340 346
343 344 346 344 345 343 345 345 347 349 351 350 352 349 352 352 350 351 353 352 350 348 347 346 346 348 348 349 349 348 349 350 350 347 347 349 351 353 351 348 347 350 352 355 354 354 353 353 354 356 357 355 354 352 349 341 337 335 335 335 333 334 339 342 339 337 335 332 331 330 328 330 331 331 333 333 336 333 331 333 334 336 337 338 343
341 342 345 343 344 344 345 344 345 348 350 350 350 354 352 354 354 353 350 348 349 349 348 347 346 346 346 348 349 350 351 351 350 349 347 348 348 349 349 349 353 354 354 353 352 354 357 361 363 360 355 354 353 351 351 335 338 328 333 336 334 333 339 342 340 330 335 334 332 330 330 330 329 327 329 330 332 330 329 332 334 334 336 338 340
342 342 343 343 343 343 342 344 346 347 346 347 348 352 355 354 355 353 351 348 346 346 346 346 346 345 344 346 347 348 351 350 348 350 348 348 346 339 341 348 348 348 340 333 333 349 354 358 358 358 359 352 352 355 335 321 317 316 318 321 324 321 325 338 331 324 334 331 330 329 329 328 327 325 326 328 329 325 324 328 330 333 333 336 337
339 337 339 339 339 339 340 342 345 344 341 342 344 347 352 351 353 355 352 350 347 344 343 345 347 347 346 346 346 347 348 347 348 349 349 347 348 346 320 324 335 348 334 319 314 320 325 330 350 356 357 340 338 333 319 314 313 312 313 312 311 312 314 317 317 331 333 331 329 328 328 329 328 327 327 328 328 323 323 324 325 328 332 334 334
Wind_Speed
11 13 11 14 14 12 10 10 11 11 12 10 13 11 11 12 9 7 6 8 8 5 6 5 5 4 4 6 6 7 5 6 4 3 3 4 5 7 3 5 4 3 3 1 1 2 3 3 3 1 3 3 2 4 5 6 7 7 5 5 11 10 7 7 9 9 8 8 8 11 7 9 10 9 5 4 5 2 2 3 2 1 3 4 10
9 10 12 13 12 14 11 11 11 13 10 10 11 11 10 12 12 11 5 5 9 7 6 6 4 4 4 5 6 7 5 4 4 3 5 9 6 4 3 4 3 2 2 2 4 2 1 3 3 2 1 1 2 4 6 5 8 7 7 7 8 9 6 8 8 8 7 8 9 9 9 8 9 10 7 5 3 3 6 3 3 4 6 7 9
10 13 12 12 14 15 11 11 11 12 13 12 11 11 11 9 9 8 7 6 7 7 6 4 4 5 5 2 0 4 7 5 5 5 3 9 6 4 3 5 4 4 3 6 4 4 1 2 4 1 2 2 2 2 3 5 6 6 6 8 8 6 7 7 4 6 6 7 7 6 7 8 6 8 5 8 10 10 8 9 8 10 11 10 8
12 10 12 15 14 13 12 11 11 11 11 10 12 11 10 5 9 8 6 7 4 6 5 6 5 4 7 4 3 5 3 1 3 1 3 10 8 7 3 4 3 5 3 1 5 2 1 2 4 3 1 3 4 2 1 7 5 7 8 7 5 6 7 7 6 6 5 4 5 6 5 6 6 8 7 6 9 11 9 10 10 9 9 9 7
11 11 10 14 12 11 12 11 12 12 11 12 12 12 9 12 9 8 6 7 6 7 4 4 3 4 6 4 3 3 1 2 4 2 2 1 5 7 8 5 4 2 6 1 6 3 4 1 3 2 2 2 2 4 1 5 7 6 8 5 6 5 7 6 7 6 9 5 2 1 2 4 6 8 8 6 8 9 14 11 5 8 9 8 9
12 12 9 14 12 9 11 12 11 9 12 12 12 13 12 11 12 9 6 7 8 9 7 3 6 4 3 3 2 3 3 3 4 6 5 6 6 6 9 7 6 3 3 3 4 4 2 2 2 5 2 4 4 2 5 3 5 9 8 6 7 6 5 6 6 6 8 8 8 4 3 5 4 6 7 5 7 11 12 10 10 9 9 9 8
12 11 11 10 13 11 15 15 12 12 11 13 12 12 12 12 12 12 7 6 8 9 7 4 7 5 6 7 5 5 4 5 5 6 8 8 5 3 6 4 3 3 3 4 2 1 3 3 2 3 1 2 3 2 2 6 6 6 6 5 6 5 4 5 6 8 4 5 6 7 9 5 6 5 6 5 7 9 9 7 9 8 11 11 10
12 12 12 11 6 7 12 12 12 10 12 11 13 12 13 11 12 11 6 6 7 10 8 4 6 5 5 7 7 7 8 5 5 4 3 4 4 3 3 5 6 2 6 3 5 4 3 4 3 3 1 2 2 3 4 2 4 5 5 5 4 3 4 5 6 6 6 4 6 5 7 7 7 8 9 7 6 5 6 7 8 10 8 9 11
12 12 13 13 8 10 12 11 10 10 12 13 13 12 12 12 12 11 8 7 5 12 9 7 5 6 6 7 4 6 6 6 3 2 4 4 3 3 1 4 2 6 3 5 3 5 2 3 3 2 1 1 2 1 2 4 3 7 4 5 5 4 3 3 2 4 5 6 2 4 6 6 5 8 9 6 5 5 5 6 6 8 5 9 11
13 13 13 12 8 9 10 11 13 13 10 15 12 11 13 12 13 12 10 9 7 12 10 8 7 6 6 5 4 3 2 4 4 3 2 3 4 2 3 5 6 7 6 4 3 4 4 4 4 1 3 2 3 3 2 2 3 7 6 6 4 5 4 4 4 4 4 5 4 4 4 5 5 5 5 5 4 5 5 6 6 9 4 9 10
11 13 12 13 12 10 8 10 10 11 6 5 7 12 13 13 14 12 10 9 8 11 10 10 8 8 6 5 4 4 5 4 5 5 4 2 1 5 4 5 3 8 7 6 7 6 5 4 4 4 0 2 1 3 5 5 5 5 5 6 5 3 3 3 4 5 5 6 5 5 6 6 5 7 6 6 6 4 5 5 8 7 5 10 10
13 12 11 13 12 11 9 11 9 12 8 8 8 10 11 12 14 12 11 9 8 12 11 11 10 7 7 6 4 5 4 4 2 7 4 6 5 4 5 6 4 7 7 6 7 7 5 3 2 1 2 5 4 5 4 4 4 4 3 4 4 3 3 2 2 5 7 6 5 6 6 6 5 7 5 5 4 3 4 5 6 9 5 8 10
14 13 13 14 12 12 12 10 10 12 9 11 11 12 10 11 14 14 12 11 7 12 11 10 9 9 7 8 5 3 4 2 5 3 5 6 6 6 4 2 1 4 4 6 4 4 5 3 2 3 5 5 4 3 3 4 3 3 2 5 3 1 1 2 3 6 6 6 6 5 6 7 6 6 6 4 3 3 5 5 6 7 7 6 9
14 14 13 13 13 13 13 12 10 9 12 13 13 11 9 10 11 15 14 12 8 9 11 10 10 9 8 8 7 5 4 5 3 7 7 6 6 6 7 6 5 6 3 2 5 5 3 5 6 6 5 4 3 4 3 3 4 4 3 3 4 2 3 2 2 5 5 7 5 5 7 6 6 5 5 3 4 5 4 5 6 5 7 6 7
13 13 13 13 13 14 15 13 12 10 11 13 12 10 8 11 10 12 13 13 10 9 9 10 10 10 9 9 9 9 8 7 6 6 6 8 9 9 6 8 8 6 5 3 4 4 7 4 6 5 5 3 3 3 5 4 3 4 2 1 3 3 2 4 5 6 8 7 7 7 5 5 4 4 4 4 3 4 3 4 4 7 7 5 5
11 13 13 14 13 13 13 13 12 10 9 8 9 7 6 5 10 13 13 13 13 9 9 12 9 11 9 8 8 8 6 8 6 5 5 6 9 9 6 3 5 5 3 5 4 2 7 6 6 7 5 4 3 3 4 3 3 2 0 2 4 4 3 4 3 6 7 8 6 6 4 4 2 2 4 4 2 3 2 3 4 5 5 4 4
11 11 11 13 13 14 13 14 13 11 8 7 5 5 1 6 8 10 11 14 15 12 13 12 11 10 11 11 11 10 11 11 10 10 9 7 5 6 8 7 4 3 6 5 5 3 7 5 7 8 5 3 3 3 4 3 3 3 2 3 3 3 3 3 4 4 6 6 6 8 6 3 1 2 5 5 3 2 3 3 5 5 3 3 3
6 4 9 10 10 11 11 12 14 12 10 8 6 4 2 4 9 11 14 14 13 14 14 14 13 13 12 13 12 11 11 12 9 10 10 8 7 5 5 8 6 7 4 7 7 5 3 4 7 6 5 5 4 4 4 4 4 3 4 4 3 2 2 2 3 5 6 5 6 6 7 5 5 5 4 4 3 1 2 1 5 4 4 4 2
4 3 2 8 9 10 11 13 12 13 11 9 6 5 4 2 7 10 16 13 14 13 13 12 13 12 11 13 13 12 11 9 6 7 9 10 10 8 7 6 7 4 4 2 6 8 5 4 6 6 6 5 5 5 4 3 3 3 4 5 3 2 2 4 4 4 5 5 5 5 5 5 6 6 1 2 3 1 5 5 3 5 5 3 2
5 5 2 4 7 9 12 14 15 14 13 11 10 8 8 7 10 11 10 2 9 9 12 12 13 12 12 12 12 9 8 5 7 5 10 10 10 9 7 6 6 6 4 7 3 6 8 7 7 8 8 7 6 6 5 4 2 0 3 5 4 2 3 3 4 3 4 5 4 4 3 3 4 5 1 5 4 4 6 5 2 4 5 3 2
4 3 3 6 7 11 12 14 14 14 13 12 13 14 13 10 8 6 7 10 11 9 8 9 8 10 12 13 13 13 12 7 8 7 8 10 10 10 9 8 4 4 6 4 6 3 7 7 8 7 8 6 4 5 4 3 3 5 5 5 3 3 4 3 3 4 3 2 2 1 2 2 5 6 5 6 3 7 6 5 5 4 5 4 3
5 6 5 4 3 8 10 12 11 13 14 16 15 13 13 8 9 10 8 6 8 9 10 9 8 7 12 11 12 11 10 7 8 11 11 10 10 9 9 7 7 5 6 8 6 6 6 3 4 6 8 7 4 4 5 4 3 4 5 4 4 4 3 3 2 2 1 2 2 2 2 2 3 5 4 5 6 7 6 5 5 4 4 4 3
8 6 4 5 5 4 3 4 13 15 14 15 15 14 13 10 10 9 8 8 8 8 6 6 9 9 9 10 7 6 9 10 11 9 11 11 10 8 6 9 7 6 4 5 6 4 5 4 3 7 8 7 5 5 4 4 4 3 4 5 4 4 4 4 4 3 4 2 2 3 3 3 2 4 4 4 6 7 6 6 7 5 3 4 3
16 9 9 7 5 3 3 6 8 12 12 14 11 11 14 13 11 10 10 9 9 7 8 6 8 13 13 9 5 5 9 10 11 10 8 11 10 8 5 4 8 5 8 5 7 6 8 4 7 8 7 6 5 5 5 5 5 4 4 5 5 5 4 4 5 5 5 3 3 2 3 4 4 4 5 5 5 6 5 4 6 3 3 4 3
12 4 10 8 7 8 5 7 8 6 10 10 11 10 11 11 11 8 9 10 5 3 4 5 7 8 11 10 6 6 8 10 12 9 10 10 9 8 4 4 4 6 7 6 5 6 8 5 8 8 8 6 5 6 5 5 4 4 5 5 3 2 5 4 3 3 3 2 2 1 2 2 3 4 4 3 3 6 6 4 4 3 3 3 3
13 13 8 6 3 10 10 9 7 5 3 4 2 6 8 9 8 7 10 9 8 6 4 4 4 7 8 11 9 5 6 9 8 6 10 9 7 6 2 5 3 3 3 6 6 9 7 7 7 8 9 6 6 6 6 5 5 5 4 4 3 4 4 4 3 2 1 2 3 1 3 4 4 3 4 6 8 6 5 4 3 2 3 2 3
5 4 4 4 3 4 4 1 2 4 2 1 2 2 2 2 4 5 7 6 7 7 4 3 5 7 8 9 8 5 4 4 6 6 6 6 4 5 2 5 5 3 2 1 7 6 8 6 7 8 9 8 7 6 5 5 5 4 3 4 4 5 4 4 2 2 2 2 1 4 4 4 6 6 6 6 5 6 3 4 3 3 3 3 3
5 4 5 2 2 2 1 5 2 3 2 4 3 2 3 4 4 4 4 4 3 5 8 7 5 7 7 8 7 5 6 4 4 4 4 4 3 4 2 3 4 6 4 1 3 4 4 6 7 9 9 7 6 6 5 5 4 4 4 4 4 5 4 3 3 2 2 2 2 1 5 7 7 5 4 4 4 4 4 3 3 2 2 3 2
6 2 3 4 2 3 1 2 4 4 5 4 3 4 3 2 3 3 3 5 6 6 6 8 7 6 7 6 8 6 6 6 5 5 6 5 2 3 4 5 4 4 5 3 1 3 3 8 8 9 8 7 6 6 5 6 5 5 4 4 5 5 4 4 3 3 3 1 2 3 8 7 6 7 8 7 7 6 4 5 5 5 5 2 2
5 6 7 4 4 5 1 1 2 5 4 4 5 5 4 3 4 4 2 2 1 2 2 2 2 4 9 10 8 6 6 7 7 7 7 6 3 3 5 6 5 3 3 3 4 2 5 9 9 8 7 7 6 6 8 12 9 6 5 5 4 4 4 3 3 2 2 1 4 7 6 10 9 8 8 8 9 9 8 6 3 4 5 6 4
6 6 11 12 10 5 4 4 2 3 4 2 5 4 4 4 3 3 2 3 3 3 3 3 4 5 5 2 11 9 5 8 8 7 7 7 5 5 6 6 6 5 4 4 5 3 7 7 9 8 8 7 7 6 12 11 11 11 7 5 4 4 4 4 2 3 2 2 3 3 2 4 6 6 6 8 7 8 8 8 8 8 7 4 4
9 9 5 6 7 8 8 6 5 2 3 4 4 5 5 2 2 1 3 4 4 4 5 5 5 5 4 6 4 7 12 7 9 8 7 7 6 6 7 7 6 7 5 5 6 5 7 7 7 7 7 8 6 10 14 11 10 10 8 6 6 5 5 4 3 2 4 2 4 3 3 3 2 6 5 4 6 8 7 8 10 9 8 10 8
17 13 9 10 10 8 7 8 6 5 3 3 3 1 2 2 2 1 2 4 4 5 6 5 4 3 4 2 2 6 1 11 7 7 7 7 8 8 9 9 8 8 7 6 6 6 8 7 8 8 8 7 6 13 13 13 10 8 8 9 5 5 5 4 3 3 3 3 4 3 3 3 5 7 6 6 5 4 4 7 10 10 8 6 6
9 13 7 7 6 7 6 6 7 7 7 6 4 4 2 3 1 3 3 4 4 5 7 7 5 2 2 4 5 5 6 3 10 10 4 8 8 9 9 9 8 8 8 7 8 8 8 8 8 8 7 6 7 13 14 13 11 8 5 1 5 7 5 5 4 3 4 3 3 2 3 2 5 3 3 7 6 5 4 1 1 2 3 7 9
6 7 6 3 3 5 5 6 5 6 7 6 5 4 3 2 1 1 2 3 3 2 3 4 5 3 2 2 2 3 6 7 7 1 11 13 6 8 9 8 9 9 9 8 9 9 8 7 8 7 7 6 7 14 14 14 12 9 7 4 4 6 5 5 4 3 4 3 2 3 3 5 3 2 0 6 3 0 5 5 2 4 3 4 4
5 8 6 3 5 4 5 4 5 6 6 5 6 5 5 4 3 1 2 3 5 4 4 5 1 4 4 4 5 4 1 2 4 6 5 6 13 5 9 8 8 7 7 8 7 7 8 8 7 7 7 7 8 15 14 14 13 10 9 3 5 5 5 5 4 3 3 3 4 3 3 5 5 5 6 9 6 1 1 5 3 3 5 4 4
7 8 10 8 7 7 6 5 5 7 6 6 4 5 5 4 4 4 3 3 4 5 5 7 7 7 3 4 3 5 5 5 3 4 7 7 5 15 7 7 8 8 8 9 8 7 7 7 7 7 7 7 8 13 15 15 14 12 8 4 5 5 6 6 5 4 4 4 5 4 2 4 5 5 5 5 4 4 2 4 4 3 4 5 4
11 9 8 7 7 9 7 7 8 8 6 4 3 3 3 3 3 3 3 1 3 4 4 5 7 5 2 1 2 3 4 6 6 6 6 6 5 2 11 10 6 8 9 8 7 7 7 6 7 7 6 8 7 11 15 15 15 13 10 5 6 6 6 6 6 5 5 5 4 11 3 4 7 5 7 7 5 4 3 3 4 5 3 5 6
10 9 10 10 11 11 10 8 7 7 6 4 2 2 2 3 2 2 3 4 3 2 1 4 5 7 5 2 3 4 5 6 7 6 6 6 8 7 6 9 8 6 7 7 7 7 7 6 7 7 9 10 8 10 15 15 15 15 11 5 7 6 6 6 6 6 6 5 4 6 4 3 9 8 10 8 6 3 3 2 2 3 4 6 7
10 11 9 9 8 9 9 8 7 5 4 5 4 1 1 2 3 2 4 4 4 4 4 5 3 1 4 6 3 3 3 6 6 4 5 4 2 3 4 6 10 5 6 6 6 7 8 7 7 6 7 7 8 7 11 16 16 16 13 6 7 7 7 8 7 7 6 5 5 4 5 12 12 13 11 9 5 2 2 4 3 4 3 3 7
9 10 10 8 9 9 9 10 7 5 4 5 4 3 1 0 2 2 4 5 4 4 5 7 6 4 4 4 2 3 4 3 5 7 5 5 5 4 2 5 8 6 5 6 7 6 8 7 8 7 7 8 8 9 11 16 16 16 16 8 7 6 6 6 7 6 6 6 6 6 5 10 13 12 11 9 3 1 4 2 5 4 2 1 6
9 9 11 10 8 8 9 10 10 9 7 5 5 4 2 1 1 1 3 4 3 3 3 4 4 5 5 5 4 5 3 2 4 8 7 7 6 6 5 2 5 11 10 4 6 6 7 7 7 7 7 9 10 15 9 14 15 16 15 10 5 7 6 7 7 6 6 6 6 6 7 10 12 11 10 8 2 2 2 5 3 0 4 6 6
7 9 9 9 8 9 10 10 9 8 7 8 8 8 6 4 4 3 4 5 5 3 2 1 3 4 4 4 0 2 3 5 1 3 7 9 7 8 6 5 3 1 8 10 4 5 6 6 6 6 6 7 8 10 17 12 13 14 14 12 7 2 9 7 7 7 6 6 6 6 8 12 12 11 10 6 3 3 3 4 1 4 5 4 4
7 8 8 9 9 8 7 8 9 8 8 9 9 9 9 7 7 6 2 3 4 4 5 5 4 3 4 5 5 1 2 4 3 3 2 5 6 6 5 5 6 4 1 5 9 7 3 6 7 6 6 6 7 6 12 17 14 15 14 13 11 6 3 6 6 6 4 7 7 7 9 14 13 12 10 6 3 2 4 4 2 2 1 2 3
7 6 7 7 7 9 9 9 8 10 9 8 7 6 7 7 5 5 6 4 5 5 6 6 5 4 4 5 5 6 5 3 2 2 0 0 4 5 5 5 6 6 5 5 5 6 8 7 7 7 7 6 7 7 6 10 17 17 14 12 9 7 4 0 6 5 5 7 9 14 15 13 12 11 9 5 3 4 5 4 3 1 1 2 1
7 7 7 7 7 7 8 8 8 9 9 9 8 4 4 6 7 6 3 4 4 5 6 6 6 6 5 5 5 5 5 5 4 2 4 3 3 3 5 6 6 6 7 6 6 7 8 6 6 6 7 7 8 7 7 7 9 9 10 12 9 8 5 3 2 4 8 14 17 17 16 13 10 8 6 4 4 4 5 5 4 4 2 2 3
7 8 8 7 8 7 8 9 9 9 8 7 6 5 3 3 5 6 5 5 3 3 4 6 6 6 7 7 7 6 6 5 4 2 3 3 2 2 3 4 4 6 7 8 9 10 11 9 7 8 7 7 8 8 8 8 8 7 7 7 6 6 6 5 6 6 9 9 12 12 9 10 8 9 8 7 6 6 4 4 3 4 3 3 4
6 7 7 7 7 8 8 9 8 8 8 7 4 2 4 3 3 5 5 5 4 4 3 3 3 5 6 7 8 9 8 6 5 4 4 5 4 2 4 6 6 6 5 6 6 6 6 6 6 6 7 7 7 7 8 9 8 8 7 6 6 7 6 6 6 5 6 9 10 10 11 8 6 6 5 4 4 4 4 4 5 4 5 5 5
7 7 8 7 8 9 9 8 8 7 7 8 7 4 5 6 4 4 4 5 6 7 5 4 3 2 6 6 6 6 6 6 6 5 6 6 6 6 6 5 5 4 3 3 2 4 3 3 2 3 6 7 6 8 8 11 13 16 15 10 6 7 7 6 7 10 9 9 9 9 8 8 7 7 6 6 5 5 4 5 5 5 5 6 6
6 6 8 9 9 9 10 9 6 7 8 7 8 5 4 6 4 3 2 4 5 6 6 6 4 3 2 5 6 6 6 5 5 6 6 6 7 7 6 6 7 6 7 8 8 8 7 5 6 5 5 7 8 8 13 19 18 20 20 20 16 13 9 7 11 15 9 9 9 9 8 8 8 7 7 7 7 6 6 6 6 6 6 5 5
7 8 8 9 9 9 9 9 7 7 8 9 7 6 6 7 5 2 3 3 3 4 5 4 6 3 2 3 3 5 6 5 7 8 8 7 6 9 15 16 12 7 6 12 14 16 14 11 6 6 6 7 10 9 17 18 20 20 20 18 16 16 14 14 17 12 8 8 9 9 8 7 8 8 7 8 7 7 6 6 6 6 6 6 5
Wind_Direction
200 199 196 178 176 183 179 172 176 186 165 180 164 180 177 155 166 176 166 171 150 164 161 197 182 162 198 192 181 175 204 176 196 192 185 136 131 120 168 134 136 190 164 237 2 246 266 249 304 330 51 29 358 324 325 331 317 292 305 356 343 342 358 345 41 12 356 352 344 329 65 56 28 348 53 58 54 108 64 63 34 307 77 65 112
223 206 204 181 180 181 180 178 188 182 171 180 173 179 185 168 167 167 192 182 151 174 159 201 169 180 191 206 189 168 169 181 193 179 190 106 91 110 164 105 106 91 125 188 221 235 240 310 333 67 0 72 277 263 336 331 317 312 0 0 353 349 349 350 50 18 17 353 353 334 26 20 27 341 358 50 52 72 68 46 154 28 52 57 89
226 208 202 193 188 179 183 180 189 186 178 184 179 186 182 189 151 152 182 208 156 173 152 193 187 177 195 189 323 173 156 183 197 173 151 127 134 166 156 106 176 203 183 177 204 220 357 329 309 64 5 318 41 339 337 292 277 350 11 8 359 353 347 345 47 39 38 357 356 341 29 9 357 346 346 17 342 68 49 27 33 42 35 54 58
230 222 208 203 189 177 184 185 188 191 177 184 178 194 183 194 138 151 176 194 182 158 155 184 179 187 76 35 54 25 18 9 62 4 122 129 146 162 143 139 205 201 175 196 112 120 84 338 319 335 331 50 312 265 346 336 359 352 20 12 12 355 355 339 353 58 49 19 18 358 10 29 352 350 355 353 344 77 70 55 41 32 41 46 58
216 222 215 209 189 179 177 195 186 192 185 185 184 190 186 189 156 156 178 182 205 139 165 175 127 99 72 58 1 43 161 44 152 163 124 133 159 169 158 173 185 220 157 225 97 71 118 208 288 321 258 194 350 333 19 342 360 3 22 18 7 17 354 338 345 30 41 24 97 353 353 54 9 354 343 336 344 37 44 62 62 60 50 42 49
216 220 223 221 159 181 179 205 184 205 185 187 190 189 183 187 166 167 184 177 199 149 167 196 115 113 115 146 178 164 141 177 218 168 182 167 212 179 144 167 176 187 125 142 137 167 133 166 251 301 329 41 290 13 330 345 3 31 16 20 7 18 13 344 357 352 62 23 12 28 16 62 26 350 338 344 3 358 29 20 33 47 68 63 52
213 220 221 231 154 189 204 193 193 196 190 201 194 181 184 180 160 177 179 178 198 144 169 204 128 149 172 184 189 181 179 202 213 195 169 183 176 133 135 159 160 132 120 89 98 152 160 179 208 252 310 326 341 351 341 4 3 41 24 18 14 2 31 359 355 355 27 50 24 21 23 71 63 3 7 11 4 10 7 4 37 22 63 63 60
203 209 214 214 188 177 207 193 188 197 211 197 192 180 181 174 161 174 175 177 203 144 165 190 141 163 181 207 177 195 191 196 202 221 120 44 71 137 186 147 149 168 134 149 178 183 194 179 221 236 330 267 44 312 354 26 351 59 41 40 354 2 37 19 355 6 359 9 45 12 43 24 60 32 43 33 15 7 355 2 25 2 68 64 58
202 200 209 216 213 224 195 198 202 214 213 201 192 179 180 173 158 175 173 177 206 143 161 181 156 169 186 214 227 202 187 172 188 244 120 162 143 203 129 96 204 116 135 139 225 154 203 182 205 249 247 205 311 77 342 20 13 84 62 39 8 5 27 24 4 341 352 339 56 40 63 28 33 58 40 43 21 1 357 6 17 2 22 76 69
199 205 212 211 209 226 194 199 213 207 178 226 197 187 181 174 159 175 173 182 182 148 157 179 169 175 197 216 223 265 245 151 169 141 352 122 194 158 101 192 196 138 145 173 214 160 156 181 222 160 204 62 18 342 55 4 57 105 82 64 26 12 359 357 10 344 329 325 29 56 71 55 20 58 54 32 45 4 10 346 11 346 14 75 70
192 202 209 212 202 215 219 236 204 219 220 351 262 191 186 179 164 173 166 190 166 153 160 172 187 179 195 221 189 232 259 147 163 158 133 66 322 175 195 206 234 150 167 189 184 195 162 197 200 158 45 135 92 10 34 6 35 55 82 108 71 23 4 3 7 12 0 333 21 52 56 58 35 39 57 46 23 5 349 354 352 341 327 92 79
189 194 199 208 207 206 213 218 204 212 222 185 261 240 188 187 166 168 166 191 181 162 167 176 189 182 192 210 195 203 243 177 196 146 161 159 208 242 230 197 201 168 173 188 185 175 155 181 77 75 70 27 48 55 30 8 30 79 65 54 65 45 351 328 2 32 17 350 24 37 53 54 55 61 57 51 19 357 356 356 351 326 326 82 97
187 194 195 200 201 204 208 210 213 213 202 198 224 244 204 184 173 166 166 183 205 167 173 180 183 187 194 187 199 218 218 252 174 184 175 178 198 212 223 277 57 314 178 189 125 132 106 106 106 34 64 63 54 51 44 18 7 74 76 99 95 94 327 321 32 53 26 18 8 38 45 50 56 70 57 42 22 8 10 7 344 319 16 32 69
182 190 197 199 199 199 207 206 205 203 205 208 216 250 221 181 178 181 168 178 199 181 176 183 187 185 194 183 188 198 212 234 216 191 200 187 196 216 197 186 190 205 194 133 163 154 122 100 91 81 72 80 67 77 75 42 18 56 65 71 73 20 321 357 52 61 54 37 11 15 54 41 53 69 80 55 35 33 7 13 335 351 10 23 66
177 184 193 199 202 202 205 206 207 207 213 210 213 228 276 199 182 173 172 177 190 194 173 186 191 191 186 196 182 189 199 208 215 224 190 202 188 212 220 182 187 201 181 148 89 110 120 109 109 105 109 114 167 166 111 91 59 65 38 50 141 116 10 351 36 33 56 49 26 8 47 46 22 71 78 79 51 44 26 341 355 14 4 24 51
172 178 195 200 197 201 210 212 213 212 204 214 219 224 265 257 183 183 173 182 187 197 182 187 196 197 185 197 196 186 188 199 198 230 261 217 205 198 209 261 191 175 114 103 113 206 113 130 141 125 132 159 143 96 76 91 105 103 71 6 59 51 48 38 32 48 47 56 41 13 344 67 31 47 93 75 58 77 31 331 28 45 10 14 14
174 178 190 199 202 203 207 208 204 211 199 206 224 236 215 333 262 184 188 186 190 195 196 190 195 203 195 197 204 199 192 203 198 200 222 228 235 222 177 206 214 115 156 153 160 182 131 172 134 133 141 130 110 96 112 129 134 109 89 52 60 58 24 23 5 62 61 49 36 13 337 97 41 4 87 93 69 59 53 341 48 40 43 50 22
26 142 170 186 199 205 209 213 207 210 201 197 200 236 178 180 307 284 188 194 194 191 203 195 194 204 200 198 207 207 204 203 206 188 201 222 232 231 206 173 206 186 223 184 157 124 101 108 121 133 148 151 140 122 107 97 92 111 85 69 61 51 44 36 22 42 60 61 52 21 352 7 28 354 80 105 96 54 133 29 63 60 68 57 32
125 102 166 184 194 199 207 219 209 207 199 190 187 213 250 157 69 333 267 207 205 191 206 204 197 203 203 200 203 207 212 204 221 186 184 207 221 213 230 166 194 173 177 87 141 145 160 147 122 143 136 138 130 119 123 120 137 128 141 122 112 83 41 46 38 43 53 51 61 47 3 8 3 339 33 87 122 168 67 40 71 75 81 63 34
163 149 246 232 171 203 211 216 217 214 205 192 179 190 211 192 156 205 252 98 302 232 199 214 207 203 208 201 196 202 215 198 213 232 192 202 211 213 218 213 194 170 180 133 200 169 152 150 161 154 149 148 146 149 141 156 154 197 118 109 108 115 96 71 78 59 59 50 47 63 33 354 328 310 260 142 180 125 88 75 13 84 84 84 23
148 154 206 239 192 201 205 203 208 207 204 207 193 189 203 179 160 171 214 186 214 243 217 216 223 210 213 206 201 195 206 204 191 217 230 210 199 206 206 211 184 219 139 184 172 208 139 172 166 148 148 139 141 132 121 110 105 91 79 90 98 82 87 83 42 66 83 97 82 62 109 22 339 333 357 9 63 80 94 83 47 47 77 64 47
181 194 186 204 250 230 221 195 200 205 204 207 209 208 201 159 180 189 209 187 198 231 222 208 223 226 219 212 208 190 190 188 203 201 214 229 230 201 196 197 191 201 154 178 194 170 167 157 149 142 130 137 116 116 135 145 122 124 124 125 119 102 103 106 117 116 76 90 93 40 3 115 27 327 28 16 14 49 46 76 57 38 46 75 53
169 173 230 224 203 267 295 236 190 206 208 207 209 213 217 182 179 182 190 201 204 217 221 216 212 226 236 227 212 186 169 176 199 212 203 219 232 234 205 188 196 163 198 171 173 196 137 145 136 111 122 131 144 145 127 125 123 143 131 127 140 135 142 150 154 146 102 63 52 52 33 0 46 10 29 30 30 52 38 37 57 30 17 56 62
94 187 260 251 252 273 276 269 240 205 204 206 206 209 216 213 177 188 197 206 208 211 217 217 220 216 225 235 215 159 169 180 196 205 212 212 229 234 205 216 171 186 183 187 164 193 124 142 115 123 130 132 145 140 127 123 142 147 134 140 159 177 150 85 51 69 73 45 41 54 44 27 2 46 20 31 31 65 57 36 54 25 16 44 53
356 99 148 220 270 282 258 233 241 237 206 194 197 202 211 213 212 184 194 200 181 193 234 212 229 228 217 229 231 174 173 193 201 198 214 217 226 240 182 187 155 199 188 160 185 103 130 131 141 144 139 146 142 118 122 140 144 146 157 164 159 119 94 89 99 100 108 114 62 27 72 83 24 35 52 34 25 65 59 40 41 27 359 44 64
339 8 347 26 172 202 217 247 248 226 51 27 150 190 205 205 207 208 184 178 171 179 221 247 235 242 237 227 229 215 197 191 199 190 210 222 216 246 203 154 152 181 208 150 162 138 146 160 143 148 143 129 121 130 140 149 148 159 174 143 136 108 116 128 143 155 108 92 128 116 64 49 46 38 42 29 14 23 75 51 42 19 354 27 72
279 303 325 45 346 300 315 235 232 262 32 168 243 204 183 207 174 156 176 168 159 147 149 226 248 249 239 231 227 209 216 179 177 195 209 231 214 224 249 167 149 142 47 162 156 145 153 167 139 138 137 133 135 143 145 152 156 163 144 133 127 126 137 146 128 123 153 154 52 65 74 73 55 42 34 28 12 17 26 75 39 34 360 15 51
234 340 321 124 217 7 350 300 231 149 229 259 247 244 208 193 185 162 162 182 166 168 175 212 236 252 239 215 237 228 202 182 177 202 231 238 216 191 180 76 123 125 118 8 127 157 145 126 123 120 126 134 141 145 150 153 156 145 142 143 147 144 152 127 132 177 105 86 105 133 74 71 70 53 46 45 28 20 349 71 36 28 30 27 40
17 26 265 334 324 123 35 267 261 183 186 187 213 239 220 169 185 211 195 189 178 173 181 190 203 238 250 228 227 235 194 185 180 195 222 245 223 153 124 106 89 104 138 143 180 158 141 109 106 121 129 139 146 157 162 161 154 155 151 161 151 148 144 132 145 162 111 219 237 133 99 98 98 87 78 69 66 53 24 35 11 7 0 19 61
13 355 335 342 328 9 37 319 309 259 217 192 209 216 225 202 167 185 161 85 187 177 135 117 105 28 354 315 254 225 187 185 191 193 203 218 193 146 125 126 127 131 147 157 149 212 114 121 126 131 141 148 161 173 172 165 161 159 164 158 154 145 139 136 155 117 116 113 61 69 102 117 109 97 84 64 57 62 64 61 36 19 9 4 7
352 36 2 345 323 29 335 349 335 289 272 227 252 232 230 226 217 187 177 101 79 112 120 108 111 116 116 10 311 286 208 186 188 186 196 202 183 160 138 137 143 156 183 159 156 175 128 135 140 146 155 166 174 178 159 156 159 165 163 145 145 140 140 145 154 132 136 172 102 111 123 112 112 109 94 93 84 75 67 69 75 72 56 41 27
359 27 340 324 338 355 355 355 352 315 287 319 337 336 312 238 264 203 124 112 119 120 125 143 180 179 183 191 171 343 312 239 179 186 190 195 180 160 153 152 157 171 174 163 167 164 138 148 153 156 172 177 188 141 153 150 158 167 162 146 153 156 146 152 151 171 150 174 122 128 145 143 191 124 125 106 101 100 89 82 82 79 69 54 44
353 348 343 10 355 350 349 346 349 354 332 289 309 27 310 355 332 34 110 115 128 146 148 164 175 155 174 233 162 138 157 301 260 185 188 190 179 165 163 164 171 176 173 176 172 158 158 167 164 167 178 189 154 150 150 153 155 167 164 158 161 142 143 160 162 183 147 137 125 173 189 187 146 148 144 140 138 136 120 95 93 93 88 81 41
346 311 359 24 338 338 8 349 356 358 0 358 3 358 16 86 183 83 108 136 132 154 168 174 166 148 215 186 156 145 138 140 323 311 236 189 181 171 169 169 168 174 175 172 173 172 174 176 166 175 179 184 132 157 151 155 158 162 174 244 155 137 161 159 156 178 129 123 136 164 196 105 105 171 173 150 158 149 146 150 175 115 58 50 34
290 299 329 14 317 331 351 21 1 6 11 2 12 354 70 115 195 191 155 136 161 159 143 122 131 123 172 206 161 166 165 155 154 171 310 298 205 170 172 171 174 176 173 170 179 180 176 175 168 175 183 153 147 155 156 156 157 164 168 224 154 150 153 141 144 140 126 143 172 171 207 128 157 123 266 112 80 67 151 179 140 70 50 65 45
263 265 269 345 347 321 32 27 13 27 4 27 22 28 43 24 353 316 247 187 143 158 137 117 207 165 161 188 178 169 171 119 152 142 144 275 288 218 175 177 174 171 168 169 178 178 171 174 170 173 185 139 150 160 158 159 159 166 172 205 150 144 135 135 134 143 155 155 174 180 208 140 132 109 95 109 129 160 172 106 109 128 114 95 62
325 347 357 10 337 338 22 15 47 28 22 17 42 39 25 24 359 342 313 253 194 176 164 162 187 234 181 175 174 143 148 129 120 129 150 174 245 289 255 181 176 170 169 174 178 175 163 165 171 175 180 128 146 167 161 163 164 166 170 205 149 146 133 150 146 165 167 161 185 182 174 139 122 123 120 85 81 28 304 138 145 181 134 118 109
354 354 345 349 6 358 5 10 23 39 21 31 54 56 55 35 25 3 345 303 233 231 199 188 176 193 247 227 156 156 156 145 146 160 170 165 162 230 296 292 204 171 170 173 162 158 155 162 173 178 171 134 148 169 166 166 167 171 179 180 147 151 145 149 160 159 173 173 200 169 158 153 126 134 116 104 60 40 306 175 174 145 145 141 135
358 358 356 8 4 1 0 23 37 23 18 30 44 69 83 91 53 65 69 73 75 79 170 234 187 163 175 170 163 160 155 143 136 146 160 172 167 172 212 273 264 173 164 162 159 156 157 165 173 181 149 139 145 164 171 169 172 179 189 181 153 158 157 160 161 165 175 182 164 140 147 143 136 133 119 94 64 48 330 265 175 165 205 156 146
6 360 5 6 16 9 2 11 16 17 15 12 14 106 30 63 98 73 85 82 79 54 32 37 27 134 157 145 135 114 142 134 130 143 176 170 127 116 134 211 256 223 161 165 163 170 168 169 165 180 150 132 137 152 177 177 178 184 195 186 149 165 169 166 167 167 169 181 153 151 128 117 131 130 117 98 76 42 345 287 211 186 221 143 117
7 6 353 10 10 12 356 10 23 21 14 7 11 27 343 244 136 103 89 112 104 76 62 46 17 29 45 90 88 83 88 74 130 139 155 130 111 99 52 283 261 255 185 169 174 159 170 160 161 174 150 137 144 155 179 186 185 189 196 206 162 174 175 166 169 166 171 176 164 161 128 135 136 132 119 108 89 339 285 345 48 49 46 7 113
15 359 13 18 10 7 12 10 15 19 4 3 1 10 50 352 312 229 145 137 143 121 121 120 101 55 356 18 27 68 6 289 179 131 133 122 125 136 133 102 345 312 296 191 161 157 159 155 167 168 161 150 156 163 166 191 191 194 196 208 194 178 178 165 169 175 173 171 162 157 139 147 139 132 120 125 120 326 352 90 74 15 346 58 121
14 20 21 7 12 14 20 11 16 18 13 12 2 7 6 11 350 260 181 167 147 175 151 123 109 128 134 109 247 36 276 286 309 140 138 134 138 145 141 134 143 245 292 300 265 174 159 154 162 159 169 148 151 166 168 175 197 199 202 207 227 231 172 162 175 179 183 152 160 144 142 145 140 132 123 121 91 315 72 90 126 32 21 10 110
34 28 20 16 20 15 20 14 15 14 20 27 7 3 4 4 1 338 297 207 211 200 217 192 186 173 159 150 131 144 288 307 335 344 4 110 130 132 129 134 137 145 233 285 289 306 275 178 166 164 168 143 144 158 175 174 177 200 209 214 213 233 268 173 173 178 182 145 157 139 146 146 141 134 121 119 105 37 111 136 91 58 341 57 32
39 28 20 17 18 18 14 20 19 16 18 41 42 14 347 344 346 349 356 283 225 226 225 228 213 199 205 189 180 178 175 202 270 313 7 95 150 140 132 134 132 136 148 193 232 263 249 221 184 169 174 154 148 153 154 180 179 189 204 215 216 231 244 115 176 174 174 152 134 129 139 144 140 134 131 125 132 121 137 132 142 151 203 128 241
36 23 17 16 8 13 10 9 16 12 24 35 43 43 348 319 349 3 349 330 292 267 236 229 223 224 229 234 231 213 191 193 205 247 263 253 230 167 141 153 164 165 168 190 209 219 253 236 196 188 185 175 157 152 150 161 182 184 193 211 211 228 219 225 87 149 135 123 131 139 140 139 135 138 144 159 157 168 178 165 164 182 178 200 217
30 21 10 13 3 9 5 10 6 6 10 47 59 9 318 358 346 5 349 331 299 236 268 277 255 236 225 216 222 227 215 210 207 219 268 267 249 208 143 177 186 175 177 185 197 205 211 218 193 193 185 182 171 166 148 150 163 178 191 183 189 222 212 147 103 115 119 121 128 135 145 148 152 158 163 174 172 173 186 182 179 181 189 213 230
24 20 12 7 1 3 355 2 6 3 2 8 89 32 348 349 20 339 345 331 335 322 298 268 279 274 256 234 230 219 216 212 200 203 236 254 272 247 212 215 202 196 191 189 207 217 219 220 207 191 187 181 182 174 163 153 158 171 185 187 183 203 194 182 139 134 131 131 129 129 133 141 146 168 178 192 182 176 204 187 187 184 199 216 205
9 12 12 358 359 353 351 354 0 2 2 355 6 58 351 2 24 29 13 347 330 320 303 286 253 263 264 264 252 248 222 220 211 201 216 229 223 220 228 254 259 243 211 233 272 276 275 282 285 216 188 192 186 186 186 164 170 169 171 178 193 208 199 181 147 138 131 127 129 137 141 151 167 175 186 190 184 177 206 206 196 192 212 215 187
1 6 5 356 357 350 344 343 359 7 356 351 342 47 16 351 358 29 5 5 343 328 331 315 304 240 229 246 237 238 244 238 241 229 219 224 230 235 237 233 246 237 222 215 222 239 244 244 248 242 209 196 198 193 173 166 164 169 173 171 173 185 202 176 142 148 145 144 150 148 155 161 172 180 188 196 185 181 193 204 207 209 213 199 155
357 358 356 353 350 346 337 339 3 6 356 343 340 356 29 3 357 351 1 2 330 335 322 317 316 309 236 213 225 240 241 240 233 235 227 224 230 228 223 223 227 245 237 230 228 236 251 270 259 259 253 243 240 188 171 169 168 168 169 164 168 177 179 160 146 148 154 159 158 159 164 171 178 186 195 200 181 176 191 201 211 214 219 163 164